[[{"header":{"parameterUnit":"m.s-1","parameterCategory":1,"la1":30.2991,"la2":30.254,"lo1":-89.0895,"lo2":-89.0444,"dy":0.0017,"dx":0.0017,"nx":28,"ny":28,"refTime":"2024-04-01T09:00:00:Z","depth":0,"parameterNumber":2,"parameterNumberName":"U-component_of_WINDS"},"data":[0,0,0,0,0,0,0,0,0,0,0,0,0,0,0,0,0,0,0,0,0,0,0,0,0,0,0,0,0,0,0,0,0,0,0,0,0,0,0,0,0,0,0,0,0,0,0,0,0,0,0,0,0,0,0,0,0,0,-1.0505,-1.0505,0,-1.0507,-1.0507,-1.0507,-1.0495,-1.0495,-1.0495,-1.0495,-1.0498,-1.0498,-1.0498,0,0,0,0,0,0,0,0,0,0,0,0,0,-1.0493,-1.0493,-1.0505,-1.0505,-1.0505,-1.0507,-1.0507,-1.0507,-1.0496,-1.0495,-1.0495,-1.0494,-1.0497,-1.0498,-1.0498,0,0,0,0,0,0,0,0,0,0,0,0,0,-1.0497,-1.0493,-1.0505,-1.05,-1.0499,-1.0507,-1.0507,-1.0507,-1.0496,-1.0495,-1.0495,-1.0494,-1.0497,-1.0498,-1.0498,-1.0512,0,0,-1.05,-1.05,0,0,0,0,0,0,0,0,-1.0497,-1.0497,-1.05,-1.05,-1.0499,-1.05,-1.0504,-1.0509,-1.0496,-1.0497,-1.0495,-1.0494,-1.0499,-1.0499,-1.0501,-1.0512,-1.0512,-1.05,-1.0501,-1.0501,-1.0501,0,0,0,0,0,0,0,-1.0496,-1.0497,-1.0506,-1.05,-1.05,-1.0497,-1.0497,-1.0505,-1.0501,-1.0497,-1.0496,-1.0496,-1.0499,-1.05,-1.0501,-1.0512,-1.05,-1.0501,-1.0501,-1.0501,-1.0535,-1.0535,0,0,0,0,0,0,-1.0497,-1.0497,-1.0506,-1.0506,-1.0497,-1.0498,-1.0498,-1.0501,-1.0501,-1.05,-1.0497,-1.0496,-1.05,-1.05,-1.0501,-1.0517,-1.0501,-1.0501,-1.0502,-1.0534,-1.0535,-1.0535,0,0,0,0,0,0,-1.0496,-1.0497,-1.0506,-1.0501,-1.0502,-1.0499,-1.0502,-1.0501,-1.0503,-1.0501,-1.05,-1.0499,-1.0499,-1.05,-1.0509,-1.0517,-1.0502,-1.0502,-1.0534,-1.0534,-1.0535,-1.0548,0,0,0,0,0,0,-1.0496,-1.0497,-1.0502,-1.0501,-1.0502,-1.0513,-1.0502,-1.0501,-1.0503,-1.0502,-1.0503,-1.0502,-1.0499,-1.0508,-1.051,-1.0517,-1.0503,-1.0533,-1.0534,-1.0535,-1.0547,-1.0549,-1.0551,0,0,0,0,0,-1.0496,-1.0506,-1.0502,-1.0504,-1.0508,-1.0514,-1.0514,-1.051,-1.0504,-1.0509,-1.0508,-1.0502,-1.0516,-1.0509,-1.0511,-1.0519,-1.0532,-1.0534,-1.0535,-1.0546,-1.0549,-1.0551,0,0,0,0,0,0,-1.0508,-1.0506,-1.0502,-1.0512,-1.0513,-1.0512,-1.0518,-1.0513,-1.0516,-1.0515,-1.051,-1.051,-1.052,-1.052,-1.0513,-1.0532,-1.0523,-1.0525,-1.0531,-1.0534,-1.0536,-1.0536,-1.0503,0,0,0,0,0,-1.0512,-1.0517,-1.0514,-1.0524,-1.0524,-1.0521,-1.0524,-1.052,-1.0521,-1.0522,-1.0521,-1.0523,-1.0528,-1.0531,-1.0535,-1.0547,-1.0547,-1.0553,-1.0555,-1.0557,-1.0559,-1.0565,-1.0568,-1.0539,-1.0539,-1.0539,0,0,-1.052,-1.0519,-1.0523,-1.0526,-1.0527,-1.0532,-1.0522,-1.0528,-1.0532,-1.0523,-1.0531,-1.0531,-1.0533,-1.0543,-1.0548,-1.0544,-1.0567,-1.0559,-1.056,-1.0561,-1.0567,-1.057,-1.0572,-1.054,-1.054,-1.054,0,0,-1.0538,-1.0538,-1.0545,-1.0546,-1.0547,-1.0545,-1.0546,-1.0546,-1.0545,-1.0554,-1.0547,-1.0552,-1.056,-1.0562,-1.0563,-1.0582,-1.0577,-1.0584,-1.0595,-1.0601,-1.0603,-1.0605,-1.0612,-1.0615,-1.0585,-1.0585,-1.0585,0,-1.0548,-1.0555,-1.055,-1.0556,-1.0558,-1.055,-1.0558,-1.056,-1.0562,-1.0564,-1.0559,-1.0569,-1.0569,-1.058,-1.0585,-1.0586,-1.0589,-1.0583,-1.0603,-1.0605,-1.0607,-1.0613,-1.0616,-1.0586,-1.0586,-1.0586,-1.0586,0,-1.0568,-1.0573,-1.0579,-1.0581,-1.0584,-1.0591,-1.0587,-1.0591,-1.0587,-1.0586,-1.0595,-1.0595,-1.0599,-1.0602,-1.0598,-1.0612,-1.061,-1.0604,-1.0595,-1.0611,-1.0617,-1.0619,-1.0587,-1.0587,-1.0586,-1.0586,0,0,-1.0593,-1.0592,-1.0594,-1.0595,-1.0596,-1.06,-1.0607,-1.0611,-1.0614,-1.0616,-1.0622,-1.0629,-1.0624,-1.0626,-1.0623,-1.0629,-1.0644,-1.0622,-1.0622,-1.0626,-1.0659,-1.0663,-1.0666,-1.064,-1.0641,-1.0641,-1.0659,0,-1.061,-1.0621,-1.0617,-1.0629,-1.0634,-1.0627,-1.0633,-1.0634,-1.0633,-1.0638,-1.0637,-1.0642,-1.0635,-1.0636,-1.0641,-1.0641,-1.065,-1.0639,-1.0646,-1.0646,-1.0646,-1.0669,-1.0673,-1.069,-1.0661,-1.0662,-1.0662,0,-1.0631,-1.0634,-1.0646,-1.0646,-1.0648,-1.0653,-1.0657,-1.0661,-1.0662,-1.0661,-1.0663,-1.0659,-1.0667,-1.0658,-1.0668,-1.0661,-1.0664,-1.0664,-1.0664,-1.0665,-1.0655,-1.067,-1.0696,-1.0698,-1.0666,-1.0665,-1.0665,0,-1.0649,-1.0655,-1.0663,-1.0664,-1.0664,-1.0668,-1.0669,-1.0669,-1.0672,-1.0675,-1.0677,-1.0681,-1.0683,-1.0686,-1.0684,-1.0678,-1.0695,-1.0686,-1.0694,-1.0694,-1.0698,-1.0698,-1.0724,-1.07,-1.07,-1.07,-1.07,0,-1.0668,-1.0676,-1.0671,-1.0676,-1.0685,-1.068,-1.0689,-1.0689,-1.069,-1.0695,-1.0689,-1.0694,-1.069,-1.0695,-1.0693,-1.0702,-1.0703,-1.0703,-1.0702,-1.0703,-1.0703,-1.0705,-1.0704,-1.07,-1.07,-1.07,-1.07,0,-1.0689,-1.0686,-1.0694,-1.0694,-1.0694,-1.07,-1.0699,-1.0704,-1.0703,-1.071,-1.0711,-1.0709,-1.0714,-1.0712,-1.0718,-1.0716,-1.0728,-1.0726,-1.0727,-1.0727,-1.0735,-1.0735,-1.0764,-1.0768,-1.0741,-1.0741,-1.0741,0,-1.0702,-1.0708,-1.0707,-1.071,-1.0711,-1.0715,-1.0718,-1.0714,-1.0717,-1.0719,-1.0724,-1.0728,-1.0732,-1.0741,-1.0741,-1.0745,-1.0743,-1.0753,-1.0744,-1.0745,-1.0743,-1.0743,-1.0744,-1.0755,-1.0755,-1.0755,-1.0756,0,-1.0725,-1.0723,-1.0727,-1.073,-1.0733,-1.0735,-1.0737,-1.074,-1.0736,-1.074,-1.0745,-1.0748,-1.0754,-1.0759,-1.0763,-1.0763,-1.0759,-1.0759,-1.0761,-1.0762,-1.0763,-1.0762,-1.0732,-1.0758,-1.0758,-1.0757,-1.0757,-1.0757,-1.0742,-1.0747,-1.0747,-1.0752,-1.0753,-1.0755,-1.0759,-1.0758,-1.0762,-1.0766,-1.0764,-1.077,-1.0772,-1.0777,-1.0778,-1.0783,-1.0779,-1.0783,-1.0783,-1.0784,-1.0786,-1.0762,-1.0784,-1.0784,-1.0784,-1.0784,-1.0784,0,-1.0765,-1.0765,-1.0769,-1.0771,-1.0775,-1.077,-1.0772,-1.0775,-1.0781,-1.0782,-1.0786,-1.0792,-1.0797,-1.0797,-1.0801,-1.0806,-1.0804,-1.0807,-1.0807,-1.0807,-1.0789,-1.0786,-1.0809,-1.0809,-1.0809,-1.0809,-1.0809,-1.0809,-1.0777,-1.0785,-1.0784,-1.0792,-1.0792,-1.0798,-1.0799,-1.0801,-1.0802,-1.081,-1.0813,-1.0813,-1.0814,-1.0819,-1.0823,-1.0823,-1.0825,-1.0829,-1.0828,-1.0811,-1.0808,-1.0806,-1.0804,-1.0829,-1.083,-1.0846,-1.0846,-1.0847]},{"header":{"parameterUnit":"m.s-1","parameterCategory":1,"la1":30.2991,"la2":30.254,"lo1":-89.0895,"lo2":-89.0444,"dy":0.0017,"dx":0.0017,"nx":28,"ny":28,"refTime":"2024-04-01T09:00:00:Z","depth":0,"parameterNumber":3,"parameterNumberName":"V-component_of_WINDS"},"data":[0,0,0,0,0,0,0,0,0,0,0,0,0,0,0,0,0,0,0,0,0,0,0,0,0,0,0,0,0,0,0,0,0,0,0,0,0,0,0,0,0,0,0,0,0,0,0,0,0,0,0,0,0,0,0,0,0,0,3.986,3.986,0,3.9903,3.9903,3.9904,3.9863,3.9861,3.9859,3.9858,3.9899,3.9901,3.9904,0,0,0,0,0,0,0,0,0,0,0,0,0,3.9738,3.9741,3.986,3.986,3.9861,3.9903,3.9903,3.9904,3.9863,3.9861,3.9859,3.9857,3.9898,3.9901,3.9904,0,0,0,0,0,0,0,0,0,0,0,0,0,3.9787,3.9741,3.986,3.9845,3.9845,3.9903,3.9903,3.9904,3.9863,3.9861,3.9858,3.9856,3.9897,3.9901,3.9905,3.9978,0,0,3.9917,3.9918,0,0,0,0,0,0,0,0,3.9784,3.9792,3.9847,3.9847,3.9846,3.9875,3.9876,3.9929,3.9864,3.9856,3.9858,3.9855,3.9893,3.9897,3.991,3.998,3.9982,3.9917,3.9919,3.9921,3.9922,0,0,0,0,0,0,0,3.9781,3.9789,3.9877,3.9848,3.9847,3.9836,3.984,3.9885,3.9887,3.9857,3.9854,3.986,3.9892,3.9906,3.9911,3.9982,3.9917,3.992,3.9923,3.9924,4.0114,4.0117,0,0,0,0,0,0,3.978,3.9787,3.9875,3.9878,3.9808,3.984,3.9845,3.9868,3.9887,3.9888,3.9862,3.9858,3.9901,3.9906,3.9912,4.0,3.9921,3.9925,3.9927,4.0111,4.0115,4.0118,0,0,0,0,0,0,3.9777,3.9788,3.9874,3.9832,3.9842,3.9845,3.9871,3.987,3.9885,3.9891,3.9891,3.9877,3.9899,3.9907,3.9962,4.0001,3.9926,3.993,4.0108,4.0112,4.0116,4.0175,0,0,0,0,0,0,3.9774,3.9787,3.9816,3.9833,3.9844,3.9924,3.9873,3.9873,3.9892,3.9887,3.9905,3.9905,3.9898,3.9957,3.9966,4.0005,3.9933,4.0105,4.011,4.0115,4.017,4.0181,4.019,0,0,0,0,0,3.977,3.983,3.9818,3.9829,3.988,3.9926,3.9933,3.9924,3.9895,3.9924,3.9927,3.9905,3.9995,3.9963,3.9973,4.0013,4.0102,4.0109,4.0115,4.0165,4.0179,4.019,0,0,0,0,0,0,3.9817,3.9832,3.9819,3.9886,3.9906,3.9919,3.9955,3.9938,3.9965,3.9959,3.9946,3.9951,4.001,4.0016,3.9981,4.0085,4.0044,4.0052,4.0079,4.0091,4.0101,4.0099,3.9936,0,0,0,0,0,3.9835,3.9873,3.9883,3.9942,3.9953,3.9952,3.9972,3.9964,3.9983,3.999,3.9998,4.0016,4.0048,4.007,4.01,4.017,4.0173,4.0203,4.0213,4.0221,4.0229,4.0267,4.028,4.0137,4.0137,4.0137,0,0,3.9874,3.9886,3.9911,3.9952,3.9966,4.0004,3.9959,4.0001,4.0029,3.9996,4.005,4.0056,4.0075,4.0139,4.0167,4.0146,4.0269,4.0229,4.0236,4.0239,4.0275,4.0288,4.03,4.0142,4.0141,4.014,0,0,3.9963,3.9977,4.0027,4.0042,4.0064,4.0064,4.0076,4.0092,4.0096,4.0149,4.0125,4.0157,4.0213,4.0228,4.0243,4.0338,4.0318,4.0348,4.0401,4.0439,4.045,4.046,4.0494,4.0507,4.0356,4.0356,4.0356,0,4.0008,4.0065,4.0055,4.01,4.0118,4.0091,4.0142,4.0156,4.0187,4.02,4.0176,4.0246,4.0257,4.0324,4.0347,4.036,4.0373,4.0347,4.0449,4.0459,4.0468,4.0501,4.0514,4.0359,4.0359,4.0359,4.0358,0,4.0119,4.0159,4.0198,4.0229,4.0252,4.0299,4.0295,4.0319,4.0309,4.031,4.0365,4.0377,4.041,4.0424,4.0414,4.049,4.0476,4.0451,4.041,4.0486,4.0516,4.0529,4.0364,4.0363,4.0362,4.0361,0,0,4.0241,4.0266,4.0281,4.0295,4.0317,4.0347,4.0392,4.0425,4.0446,4.0467,4.0505,4.0553,4.053,4.0547,4.0538,4.057,4.0645,4.0541,4.0541,4.0561,4.073,4.075,4.0765,4.0632,4.0634,4.0636,4.0729,0,4.0332,4.0413,4.0405,4.0482,4.0518,4.0492,4.0532,4.0549,4.0552,4.0582,4.0584,4.0619,4.0585,4.0596,4.0626,4.063,4.0679,4.0623,4.0666,4.0668,4.0664,4.078,4.0801,4.0889,4.074,4.0742,4.0744,0,4.0449,4.0477,4.0557,4.0574,4.0589,4.0625,4.0654,4.0684,4.0703,4.0702,4.0721,4.0706,4.0751,4.0707,4.0769,4.0731,4.0748,4.0752,4.0755,4.076,4.0712,4.0789,4.0916,4.093,4.0763,4.0761,4.076,0,4.0531,4.0588,4.0643,4.0656,4.0676,4.0702,4.0712,4.0728,4.0748,4.0773,4.0786,4.0815,4.0832,4.0854,4.0847,4.0816,4.091,4.0866,4.0911,4.0911,4.0933,4.0932,4.1066,4.0942,4.0942,4.0942,4.0941,0,4.0635,4.0685,4.0681,4.0715,4.0771,4.076,4.0815,4.0821,4.0835,4.087,4.0848,4.088,4.0869,4.09,4.0894,4.0947,4.0954,4.0954,4.0952,4.0957,4.0957,4.0969,4.0963,4.0945,4.0944,4.0944,4.0943,0,4.0736,4.0735,4.0794,4.0809,4.0814,4.0854,4.0866,4.0898,4.0898,4.0942,4.0952,4.0952,4.0988,4.0983,4.1022,4.1018,4.1084,4.1074,4.1078,4.1076,4.1122,4.1118,4.1269,4.1288,4.1151,4.1152,4.1154,0,4.0803,4.0842,4.0861,4.0883,4.0895,4.093,4.0951,4.0942,4.0964,4.0988,4.1017,4.1051,4.1078,4.1136,4.1139,4.1169,4.1161,4.1211,4.1165,4.1169,4.1163,4.1161,4.1165,4.1221,4.1222,4.1224,4.1225,0,4.0923,4.092,4.0952,4.0983,4.1009,4.1033,4.1054,4.1073,4.1065,4.1091,4.1128,4.1149,4.119,4.1224,4.1252,4.126,4.1242,4.1239,4.1251,4.1257,4.1259,4.126,4.1104,4.1236,4.1235,4.1234,4.1233,4.1233,4.101,4.1043,4.1062,4.1098,4.1113,4.1133,4.1165,4.1169,4.12,4.1234,4.1225,4.1267,4.1284,4.132,4.1331,4.1363,4.1345,4.1362,4.1367,4.1372,4.1378,4.1253,4.1368,4.1368,4.1368,4.1367,4.1367,0,4.1129,4.114,4.1173,4.1204,4.1232,4.1212,4.1235,4.1259,4.1297,4.1314,4.1342,4.1384,4.1417,4.1423,4.1453,4.1478,4.147,4.1487,4.1485,4.1488,4.1392,4.1379,4.1493,4.1493,4.1493,4.1492,4.1492,4.1492,4.1194,4.125,4.1249,4.1312,4.1322,4.1364,4.1379,4.1397,4.1411,4.146,4.1488,4.1492,4.1504,4.1536,4.1565,4.1565,4.1578,4.1599,4.1596,4.1507,4.1494,4.1482,4.147,4.1601,4.1601,4.1689,4.169,4.1691]}]]